MOLNIYA 1-75

Last updated on Nov. 14, 2019, 4:22 a.m. UTC

1 19807U 89014A   19315.63027878 -.00001318  00000-0 -46905-2 0  9998
2 19807  64.2452  38.3155 7035532 272.7071  15.7624  2.00377222225050
UTC
Height (km)
Latitude
Longitude
Inclination
Orbital Period
UTC large
Height (km)
Speed (km/s)
/
Latitude / Longitude
Inclination (degrees)
Orbital Period (minutes)
Azimuth
Elevation
Range (km)
Doppler Factor
iOS Compass Heading
iOS Angle

Next 30 passes for location: Hong Kong

Rise time Rise Azimuth (degrees) Set time Set Azimuth (degrees) Duration Max altitude (degrees)

No matching passes for this satellites